Location: Bon Acre
(42.6442°N, 73.5758°W)
Time: 17:29:00
(UTC+00:00)

Cosmos 2219 - Visible Passes

Search period start: 14 March 2026 00:00
Search period end: 24 March 2026 00:00
Orbit: 832 x 859 km, 71.1° (Epoch: 14 March)

Date Brightness Start Highest point End Pass type
(mag) Time Alt. Az. Time Alt. Az. Time Alt. Az.
14 Mar 6.0 03:22:40 10° N 03:22:52 11° N 03:22:52 11° N visible
15 Mar 5.9 03:08:45 10° N 03:09:15 12° N 03:09:15 12° N visible
16 Mar 5.7 02:54:49 10° N 02:55:39 13° N 02:55:39 13° N visible
17 Mar 5.6 02:40:54 10° N 02:42:04 14° N 02:42:04 14° N visible
18 Mar 5.5 02:26:59 10° N 02:28:29 15° NNE 02:28:29 15° NNE visible
18 Mar 6.1 04:10:14 10° NNW 04:10:23 11° NNW 04:10:23 11° NNW visible
19 Mar 5.3 02:13:04 10° N 02:14:56 16° NNE 02:14:56 16° NNE visible
19 Mar 5.9 03:56:16 10° NNW 03:56:49 13° NNW 03:56:49 13° NNW visible
20 Mar 5.2 01:59:09 10° N 02:01:24 17° NNE 02:01:24 17° NNE visible
20 Mar 5.8 03:42:18 10° NNW 03:43:17 15° NNW 03:43:17 15° NNW visible
21 Mar 5.1 01:45:14 10° N 01:47:53 18° NNE 01:47:53 18° NNE visible
21 Mar 5.6 03:28:20 10° NNW 03:29:46 18° NNW 03:29:46 18° NNW visible
22 Mar 5.0 01:31:19 10° N 01:34:23 18° NE 01:34:23 18° NE visible
22 Mar 5.3 03:14:22 10° NNW 03:16:17 22° NNW 03:16:17 22° NNW visible
23 Mar 4.9 01:17:24 10° N 01:20:55 18° NE 01:20:55 18° NE visible
23 Mar 5.0 03:00:24 10° NNW 03:02:49 26° NNW 03:02:49 26° NNW visible
